Location: Zagreb
(45.8000°N, 16.0000°E)
Time: 17:25:48
(UTC+01:00)

Vanguard 2 Rocket - Pass Details

Date: 22 December 2025
Orbit: 553 x 3287 km, 32.9° (Epoch: 17 January)

Event Time Altitude Azimuth Distance (km) Brightness Sun altitude
Rises 03:48:01 0° 200° (SSW) 6,041 10.9 -38.4°
Reaches altitude 10° 03:52:39 10° 189° (S) 5,401 10.7 -37.6°
Maximum altitude 04:05:35 27° 140° (SE) 4,792 10.7 -35.3°
Drops below altitude 10° 04:20:13 10° 93° (E) 6,193 12.0 -32.8°
Sets 04:25:58 0° 83° (E) 7,067 12.5 -31.8°
